Location: Unspecified
(44.4841°N, 0.0000°E)
Time: 01:40:41
(UTC+00:00)

Oscar 11 - Visible Passes

Search period start: 05 April 2026 00:00
Search period end: 15 April 2026 00:00
Orbit: 590 x 603 km, 97.8° (Epoch: 29 March)

Date Brightness Start Highest point End Pass type
(mag) Time Alt. Az. Time Alt. Az. Time Alt. Az.
5 Apr 7.1 03:29:22 10° NNE 03:33:34 71° ESE 03:35:15 35° S visible
6 Apr 6.9 03:39:13 10° NNE 03:43:25 90° NW 03:45:22 32° SSW visible
7 Apr 9.9 02:16:04 10° ENE 02:17:11 11° E 02:18:17 10° ESE visible
7 Apr 6.9 03:49:06 10° N 03:53:17 70° WNW 03:55:29 27° SSW visible
8 Apr 9.6 02:24:55 10° ENE 02:27:09 14° E 02:28:55 11° ESE visible
8 Apr 7.1 03:59:01 10° N 04:03:07 54° WNW 04:05:35 22° SW visible
9 Apr 9.4 02:34:14 10° NE 02:37:06 18° E 02:39:00 14° SE visible
9 Apr 7.4 04:08:58 10° N 04:12:56 42° WNW 04:15:41 18° SW visible
10 Apr 9.1 02:43:43 10° NE 02:47:03 22° E 02:49:06 16° SE visible
10 Apr 7.8 04:18:57 10° N 04:22:44 34° WNW 04:25:47 14° SW visible
11 Apr 8.8 02:53:19 10° NE 02:56:58 28° E 02:59:13 18° SE visible
11 Apr 8.1 04:28:58 10° N 04:32:31 27° WNW 04:35:53 11° SW visible
12 Apr 8.3 03:02:58 10° NNE 03:06:52 35° E 03:09:18 19° SSE visible
12 Apr 8.4 04:39:03 10° NNW 04:42:18 22° WNW 04:45:32 10° WSW visible
13 Apr 7.9 03:12:41 10° NNE 03:16:45 45° E 03:19:23 20° SSE visible
14 Apr 7.4 03:22:27 10° NNE 03:26:37 59° E 03:29:27 19° S visible
